Winfield, KS

7:42 PM CDT on March 30, 2017 (GMT -0500)
Strother

Weather History for KWLD - December, 2012

Change the Weather History Date:

Saturday, December 8, 2012

  Actual Average Record
Temperature  
Mean Temperature 40 °F -  
Max Temperature 46 °F 46 °F 68 °F (2008)
Min Temperature 35 °F 28 °F -2 °F (2005)
Degree Days  
Heating Degree Days 24    
Moisture  
Dew Point 41 °F    
Average Humidity 89    
Maximum Humidity 100    
Minimum Humidity 81    
Precipitation  
Precipitation 0.00 in - - ()
Sea Level Pressure  
Sea Level Pressure 29.90 in    
Wind  
Wind Speed 7 mph (ENE)    
Max Wind Speed 9 mph    
Max Gust Speed -    
Visibility 5 miles    
Events      
Averages and records for this station are not official NWS values.
T = Trace of Precipitation, MM = Missing Value Source: NWS Daily Summary

Daily Weather History Graph

Daily Weather History Graph

Search for Another Location

Airport or City:

Trip Planner

Search our weather history database for the weather conditions in past years. The results will help you decide how hot, cold, wet, or windy it might be!

Date:

Astronomy

Dec. 08, 2012 Rise Set
Actual Time 7:29 AM CST 5:10 PM CST
Civil Twilight 7:00 AM CST 5:39 PM CST
Nautical Twilight 6:28 AM CST 6:12 PM CST
Astronomical Twilight 5:56 AM CST 6:43 PM CST
Moon 2:01 AM CST (12/8) 1:36 PM CST (12/8)
Length of Visible Light 10h 38m
Length of Day
9h 40m
Waning Crescent, 28% of the Moon is Illuminated
Dec 8
Waning Crescent
Dec 13
New
Dec 19
First Quarter
Dec 28
Full
Jan 4
Last Quarter

Hourly Weather History & Observations

Time (CST) Temp. Windchill Dew Point Humidity Pressure Visibility Wind Dir Wind Speed Gust Speed Precip Events Conditions
12:49 AM 44.6 °F 40.2 °F 42.8 °F 93% 29.95 in 7.0 mi North 8.1 mph - N/A   Overcast
12:54 AM 45.0 °F 41.2 °F 42.1 °F 90% 29.95 in 7.0 mi North 6.9 mph - N/A   Overcast
1:26 AM 44.6 °F 40.2 °F 39.2 °F 81% 29.95 in 8.0 mi North 8.1 mph - N/A   Overcast
1:54 AM 44.1 °F 39.0 °F 39.9 °F 85% 29.96 in 9.0 mi North 9.2 mph - N/A   Overcast
2:36 AM 44.6 °F 39.7 °F 39.2 °F 81% 29.96 in 9.0 mi North 9.2 mph - N/A   Overcast
2:54 AM 42.1 °F 36.6 °F 39.0 °F 89% 29.97 in 9.0 mi North 9.2 mph - N/A   Overcast
3:54 AM 37.9 °F 32.1 °F 36.0 °F 93% 29.97 in 6.0 mi North 8.1 mph - N/A   Clear
4:54 AM 37.0 °F 30.4 °F 35.1 °F 93% 29.96 in 6.0 mi North 9.2 mph - N/A   Clear
6:54 AM 35.1 °F 29.3 °F 34.0 °F 96% 29.97 in 6.0 mi NNE 6.9 mph - N/A   Clear
7:54 AM 35.1 °F 32.2 °F 33.1 °F 92% 29.97 in 5.0 mi ENE 3.5 mph - N/A   Clear
8:13 AM 35.6 °F 32.8 °F 35.6 °F 100% 29.96 in 5.0 mi NNE 3.5 mph - N/A   Mostly Cloudy
8:26 AM 37.4 °F 34.9 °F 35.6 °F 93% 29.96 in 5.0 mi NNE 3.5 mph - N/A   Overcast
8:54 AM 39.0 °F 35.7 °F 37.0 °F 93% 29.98 in 6.0 mi ENE 4.6 mph - N/A   Overcast
9:54 AM 42.1 °F 38.4 °F 39.9 °F 92% 29.99 in 5.0 mi ENE 5.8 mph - N/A   Overcast
10:54 AM 43.0 °F 38.8 °F 39.9 °F 89% 29.98 in 5.0 mi ENE 6.9 mph - N/A   Overcast
11:54 AM 44.1 °F 40.1 °F 39.9 °F 85% 29.94 in 2.5 mi ENE 6.9 mph - N/A   Overcast
12:07 PM 44.6 °F 40.7 °F 39.2 °F 81% 29.92 in 5.0 mi East 6.9 mph - N/A   Overcast
12:26 PM 44.6 °F 40.2 °F 39.2 °F 81% 29.90 in 1.5 mi ENE 8.1 mph - N/A   Overcast
12:37 PM 44.6 °F 39.7 °F 39.2 °F 81% 29.90 in 3.0 mi East 9.2 mph - N/A   Overcast
12:54 PM 44.1 °F 40.1 °F 39.9 °F 85% 29.90 in 5.0 mi East 6.9 mph - N/A   Overcast
1:54 PM 44.1 °F 40.1 °F 39.9 °F 85% 29.88 in 5.0 mi East 6.9 mph - N/A   Overcast
2:04 PM 44.6 °F 41.4 °F 39.2 °F 81% 29.86 in 6.0 mi East 5.8 mph - N/A   Overcast
2:30 PM 44.6 °F 41.4 °F 41.0 °F 87% 29.85 in 6.0 mi ENE 5.8 mph - N/A   Overcast
2:54 PM 45.0 °F 41.8 °F 41.0 °F 86% 29.86 in 6.0 mi East 5.8 mph - N/A   Overcast
3:07 PM 44.6 °F 43.1 °F 41.0 °F 87% 29.85 in 6.0 mi East 3.5 mph - N/A   Overcast
3:54 PM 46.0 °F 42.5 °F 41.0 °F 83% 29.86 in 6.0 mi East 6.9 mph - N/A   Haze
4:54 PM 46.0 °F 44.8 °F 42.1 °F 86% 29.85 in 6.0 mi ESE 3.5 mph - N/A   Overcast
5:35 PM 46.4 °F 43.5 °F 42.8 °F 87% 29.82 in 7.0 mi East 5.8 mph - N/A   Overcast
5:54 PM 46.0 °F 42.5 °F 42.1 °F 86% 29.84 in 7.0 mi East 6.9 mph - N/A   Overcast
6:12 PM 46.4 °F 44.3 °F 42.8 °F 87% 29.82 in 7.0 mi ESE 4.6 mph - N/A   Overcast
6:54 PM 46.0 °F 43.1 °F 42.1 °F 86% 29.85 in 7.0 mi ESE 5.8 mph - N/A   Overcast
7:54 PM 46.0 °F 43.9 °F 43.0 °F 89% 29.85 in 5.0 mi ESE 4.6 mph - N/A   Overcast
8:31 PM 46.4 °F 44.3 °F 42.8 °F 87% 29.83 in 5.0 mi ENE 4.6 mph - N/A   Overcast
9:16 PM 46.4 °F 45.2 °F 44.6 °F 93% 29.84 in 4.0 mi East 3.5 mph - N/A   Overcast
9:33 PM 46.4 °F 45.2 °F 44.6 °F 93% 29.83 in 2.5 mi ESE 3.5 mph - N/A   Overcast
9:54 PM 46.0 °F 44.8 °F 45.0 °F 96% 29.85 in 2.0 mi East 3.5 mph - N/A   Overcast
10:46 PM 44.6 °F 42.2 °F 44.6 °F 100% 29.83 in 3.0 mi ESE 4.6 mph - N/A   Overcast
10:54 PM 46.0 °F 43.9 °F 45.0 °F 96% 29.84 in 3.0 mi East 4.6 mph - N/A   Overcast
11:01 PM 46.4 °F 44.3 °F 44.6 °F 93% 29.84 in 3.0 mi East 4.6 mph - N/A   Overcast
11:54 PM 46.0 °F 43.9 °F 45.0 °F 96% 29.85 in 4.0 mi ENE 4.6 mph - N/A   Overcast